EN

Hourly Weather Kyzyltan

Today, 24 July, Saturday

Time Temperature Precipitation Wind Pressure Humidity
00:00 +28°C° 0 mm 3 mps 690 mmHg 17%
01:00 +28°C° 0 mm 3 mps 690 mmHg 16%
02:00 +27°C° 0 mm 3 mps 690 mmHg 16%
03:00 +27°C° 0 mm 3 mps 690 mmHg 15%
04:00 +27°C° 0 mm 3 mps 690 mmHg 15%
05:00 +27°C° 0 mm 3 mps 690 mmHg 15%
06:00 +30°C° 0 mm 2 mps 691 mmHg 13%
07:00 +34°C° 0 mm 2 mps 692 mmHg 12%
08:00 +36°C° 0 mm 1 mps 692 mmHg 10%
09:00 +38°C° 0 mm 2 mps 692 mmHg 10%
10:00 +40°C° 0 mm 3 mps 692 mmHg 10%
11:00 +42°C° 0 mm 4 mps 692 mmHg 9%
12:00 +43°C° 0 mm 4 mps 692 mmHg 9%
13:00 +43°C° 0 mm 4 mps 692 mmHg 9%
14:00 +45°C° 0 mm 5 mps 692 mmHg 9%
15:00 +45°C° 0 mm 5 mps 692 mmHg 9%
16:00 +45°C° 0 mm 5 mps 692 mmHg 8%
17:00 +44°C° 0 mm 6 mps 692 mmHg 8%
18:00 +41°C° 0 mm 5 mps 692 mmHg 9%
19:00 +37°C° 0 mm 4 mps 692 mmHg 11%
20:00 +34°C° 0 mm 3 mps 691 mmHg 12%
21:00 +33°C° 0 mm 3 mps 692 mmHg 12%
22:00 +31°C° 0 mm 3 mps 692 mmHg 13%
23:00 +30°C° 0 mm 3 mps 692 mmHg 14%

Tomorrow, 25 July, Sunday

Time Temperature Precipitation Wind Pressure Humidity
00:00 +30°C° 0 mm 3 mps 692 mmHg 14%
01:00 +30°C° 0 mm 3 mps 691 mmHg 14%
02:00 +29°C° 0 mm 3 mps 691 mmHg 14%
03:00 +29°C° 0 mm 3 mps 691 mmHg 15%
04:00 +29°C° 0 mm 3 mps 691 mmHg 16%
05:00 +28°C° 0 mm 3 mps 691 mmHg 17%
06:00 +31°C° 0 mm 2 mps 692 mmHg 15%
07:00 +34°C° 0 mm 2 mps 693 mmHg 13%
08:00 +36°C° 0 mm 1 mps 693 mmHg 11%
09:00 +38°C° 0 mm 2 mps 694 mmHg 10%
10:00 +40°C° 0 mm 3 mps 694 mmHg 9%
11:00 +42°C° 0 mm 3 mps 694 mmHg 8%
12:00 +43°C° 0 mm 4 mps 694 mmHg 7%
13:00 +44°C° 0 mm 4 mps 693 mmHg 6%
14:00 +47°C° 0 mm 4 mps 693 mmHg 6%
15:00 +46°C° 0 mm 5 mps 693 mmHg 6%
16:00 +46°C° 0 mm 5 mps 693 mmHg 6%
17:00 +46°C° 0 mm 6 mps 692 mmHg 6%
18:00 +44°C° 0 mm 6 mps 692 mmHg 8%
19:00 +41°C° 0 mm 6 mps 692 mmHg 10%
20:00 +38°C° 0 mm 6 mps 692 mmHg 12%
21:00 +36°C° 0 mm 6 mps 692 mmHg 13%
22:00 +34°C° 0 mm 5 mps 692 mmHg 15%
23:00 +33°C° 0 mm 5 mps 691 mmHg 16%

Day after tomorrow, 26 July, Monday

Time Temperature Precipitation Wind Pressure Humidity
00:00 +32°C° 0 mm 4 mps 691 mmHg 17%
01:00 +30°C° 0 mm 4 mps 691 mmHg 17%
02:00 +29°C° 0 mm 4 mps 691 mmHg 18%
03:00 +29°C° 0 mm 3 mps 691 mmHg 19%
04:00 +28°C° 0 mm 3 mps 691 mmHg 20%
05:00 +27°C° 0 mm 2 mps 691 mmHg 21%
06:00 +29°C° 0 mm 2 mps 692 mmHg 19%
07:00 +32°C° 0 mm 2 mps 693 mmHg 17%
08:00 +35°C° 0 mm 2 mps 693 mmHg 15%
09:00 +37°C° 0 mm 3 mps 693 mmHg 14%
10:00 +40°C° 0 mm 4 mps 693 mmHg 13%
11:00 +42°C° 0 mm 5 mps 693 mmHg 11%
12:00 +44°C° 0 mm 6 mps 693 mmHg 11%
13:00 +45°C° 0 mm 6 mps 693 mmHg 10%
14:00 +46°C° 0 mm 7 mps 692 mmHg 10%
15:00 +45°C° 0 mm 8 mps 692 mmHg 11%
16:00 +45°C° 0 mm 8 mps 692 mmHg 11%
17:00 +44°C° 0 mm 8 mps 691 mmHg 12%
18:00 +41°C° 0 mm 8 mps 691 mmHg 15%
19:00 +39°C° 0 mm 7 mps 691 mmHg 18%
20:00 +36°C° 0 mm 6 mps 691 mmHg 21%
21:00 +34°C° 0 mm 6 mps 691 mmHg 23%
22:00 +33°C° 0 mm 6 mps 691 mmHg 25%
23:00 +30°C° 0 mm 6 mps 691 mmHg 27%

27 July, Tuesday

Time Temperature Precipitation Wind Pressure Humidity
00:00 +29°C° 0 mm 5 mps 690 mmHg 26%
01:00 +29°C° 0 mm 5 mps 690 mmHg 26%
02:00 +28°C° 0 mm 4 mps 690 mmHg 26%
03:00 +27°C° 0 mm 3 mps 690 mmHg 27%
04:00 +26°C° 0 mm 3 mps 690 mmHg 29%
05:00 +26°C° 0 mm 2 mps 690 mmHg 30%
06:00 +27°C° 0 mm 2 mps 691 mmHg 28%
07:00 +29°C° 0 mm 3 mps 691 mmHg 25%
08:00 +30°C° 0 mm 3 mps 692 mmHg 23%
09:00 +33°C° 0 mm 3 mps 692 mmHg 20%
10:00 +35°C° 0 mm 3 mps 692 mmHg 18%
11:00 +36°C° 0 mm 3 mps 692 mmHg 16%
12:00 +38°C° 0 mm 3 mps 691 mmHg 15%
13:00 +40°C° 0 mm 4 mps 691 mmHg 14%
14:00 +41°C° 0 mm 4 mps 691 mmHg 13%
15:00 +41°C° 0 mm 5 mps 690 mmHg 13%
16:00 +42°C° 0 mm 6 mps 690 mmHg 13%
17:00 +43°C° 0 mm 7 mps 689 mmHg 13%
18:00 +39°C° 0 mm 7 mps 689 mmHg 17%
19:00 +36°C° 0 mm 7 mps 689 mmHg 21%
20:00 +33°C° 0 mm 7 mps 689 mmHg 24%
21:00 +32°C° 0 mm 6 mps 689 mmHg 25%
22:00 +30°C° 0 mm 5 mps 689 mmHg 26%
23:00 +29°C° 0 mm 4 mps 689 mmHg 27%

28 July, Wednesday

Time Temperature Precipitation Wind Pressure Humidity
00:00 +28°C° 0 mm 4 mps 688 mmHg 28%
01:00 +27°C° 0 mm 3 mps 688 mmHg 30%
02:00 +26°C° 0 mm 2 mps 688 mmHg 31%
03:00 +25°C° 0 mm 2 mps 688 mmHg 32%
04:00 +24°C° 0 mm 2 mps 688 mmHg 34%
05:00 +24°C° 0 mm 2 mps 689 mmHg 36%
06:00 +25°C° 0 mm 2 mps 689 mmHg 32%
07:00 +27°C° 0 mm 2 mps 690 mmHg 28%
08:00 +28°C° 0 mm 3 mps 690 mmHg 24%
09:00 +30°C° 0 mm 3 mps 690 mmHg 22%
10:00 +33°C° 0 mm 3 mps 691 mmHg 20%
11:00 +34°C° 0 mm 3 mps 691 mmHg 17%
12:00 +36°C° 0 mm 3 mps 691 mmHg 16%
13:00 +37°C° 0 mm 3 mps 690 mmHg 14%
14:00 +38°C° 0 mm 3 mps 690 mmHg 13%
15:00 +38°C° 0 mm 3 mps 690 mmHg 12%
16:00 +38°C° 0 mm 4 mps 689 mmHg 11%
17:00 +40°C° 0 mm 5 mps 689 mmHg 11%
18:00 +36°C° 0 mm 5 mps 689 mmHg 13%
19:00 +34°C° 0 mm 6 mps 689 mmHg 15%
20:00 +32°C° 0 mm 6 mps 689 mmHg 17%
21:00 +29°C° 0 mm 5 mps 689 mmHg 19%
22:00 +28°C° 0 mm 5 mps 689 mmHg 20%
23:00 +26°C° 0 mm 4 mps 689 mmHg 22%

29 July, Thursday

Time Temperature Precipitation Wind Pressure Humidity
00:00 +26°C° 0 mm 3 mps 689 mmHg 23%
01:00 +25°C° 0 mm 3 mps 689 mmHg 23%
02:00 +24°C° 0 mm 2 mps 689 mmHg 24%
03:00 +23°C° 0 mm 2 mps 689 mmHg 25%
04:00 +23°C° 0 mm 2 mps 689 mmHg 27%
05:00 +21°C° 0 mm 2 mps 689 mmHg 28%
06:00 +24°C° 0 mm 3 mps 689 mmHg 25%
07:00 +25°C° 0 mm 4 mps 690 mmHg 23%
08:00 +27°C° 0 mm 4 mps 690 mmHg 20%
09:00 +28°C° 0 mm 4 mps 691 mmHg 18%
10:00 +30°C° 0 mm 4 mps 691 mmHg 16%
11:00 +33°C° 0 mm 4 mps 691 mmHg 13%
12:00 +34°C° 0 mm 4 mps 691 mmHg 12%
13:00 +35°C° 0 mm 4 mps 691 mmHg 12%
14:00 +36°C° 0 mm 4 mps 691 mmHg 11%
15:00 +36°C° 0 mm 4 mps 690 mmHg 11%
16:00 +36°C° 0 mm 4 mps 690 mmHg 11%
17:00 +36°C° 0 mm 4 mps 690 mmHg 11%
18:00 +34°C° 0 mm 4 mps 690 mmHg 13%
19:00 +31°C° 0 mm 3 mps 690 mmHg 16%
20:00 +28°C° 0 mm 3 mps 690 mmHg 18%
21:00 +27°C° 0 mm 2 mps 690 mmHg 19%
22:00 +26°C° 0 mm 2 mps 691 mmHg 20%
23:00 +25°C° 0 mm 1 mps 691 mmHg 21%
Show more